Wetbulb
59.89 62.05 62.79 62.57 62.52 61.43 59.89 58.13 58.02 59.38 59.12 57.46 56.18 55.57 54.92 55.51 55.98 56.30 56.53 56.44 56.42 56.56 56.39 56.48 56.06 55.87 55.46 55.95 56.18 56.37 55.78 54.26 56.02 53.24 53.67 53.71 55.42 55.94 55.89 56.28 56.16 56.57 57.32
58.27 60.88 61.96 61.52 61.80 60.45 59.18 58.21 58.40 59.09 58.80 57.99 56.97 56.13 55.30 54.93 55.13 55.71 55.82 55.73 56.12 56.30 56.16 55.60 54.82 54.38 54.22 54.76 55.76 55.53 54.05 54.08 54.41 51.81 51.79 48.71 50.73 52.78 54.40 54.82 55.69 55.34 55.87
57.52 59.87 61.04 60.54 61.54 59.81 58.27 58.10 57.75 58.88 58.72 58.11 56.97 56.49 55.42 54.68 53.72 53.99 54.70 55.48 56.05 56.37 56.19 55.25 54.88 54.80 54.62 54.78 55.47 56.24 53.75 52.03 53.85 55.11 53.25 51.31 49.65 49.96 52.66 53.19 53.44 53.21 54.74
58.22 60.13 61.01 60.34 60.38 60.50 59.06 58.30 58.67 58.73 58.87 57.95 56.11 54.81 53.12 51.71 53.18 53.35 54.22 55.57 56.34 55.83 56.03 55.59 56.43 55.54 56.11 56.43 56.73 58.29 56.05 55.74 52.93 53.86 56.11 55.42 55.32 52.56 50.71 52.81 53.56 54.06 54.22
56.61 59.63 60.91 61.02 60.83 60.89 58.88 58.14 58.56 58.67 58.82 57.77 56.71 54.59 53.34 54.11 54.80 54.54 54.07 54.05 54.91 55.66 56.21 58.29 57.91 57.52 57.41 57.61 57.41 57.98 58.74 57.74 56.90 54.67 53.91 53.83 53.92 54.66 52.48 49.86 51.48 53.52 53.71
56.88 60.23 61.97 61.99 61.15 61.49 59.31 58.14 57.60 57.91 58.83 58.38 56.92 55.31 53.98 54.07 54.05 53.11 53.20 54.43 54.96 56.28 56.16 57.27 57.38 57.88 57.77 58.27 58.91 58.77 58.51 58.03 57.47 57.30 56.52 55.31 53.71 53.00 52.34 50.87 51.57 52.08 53.34
56.86 58.47 61.07 60.74 60.79 60.45 58.92 58.23 57.79 56.63 57.99 58.26 57.73 55.74 54.70 54.35 54.24 53.28 53.20 53.73 54.62 56.16 57.18 57.36 56.62 57.65 58.80 59.27 59.94 58.80 58.74 58.25 57.44 57.33 56.59 56.99 56.36 56.21 54.82 53.29 52.11 52.15 54.09
57.53 58.42 61.16 61.15 61.16 60.89 59.31 57.77 57.85 57.09 57.79 58.12 57.92 57.42 56.00 55.18 55.16 54.43 54.55 54.78 54.97 55.66 57.06 57.63 58.04 58.16 59.08 59.46 59.14 58.89 58.93 58.90 58.49 57.95 57.92 57.42 57.25 56.87 56.04 54.45 52.70 50.24 51.06
56.95 57.65 60.98 61.63 61.06 60.96 59.71 58.14 57.52 57.73 57.55 57.49 58.13 57.99 57.36 56.08 55.65 55.45 55.79 55.51 55.64 56.19 56.62 57.57 57.87 58.65 58.99 59.25 59.03 58.55 58.85 58.92 59.33 59.22 59.16 58.68 58.23 57.88 57.60 56.96 56.02 53.55 50.44
55.57 57.49 59.77 61.65 61.66 61.56 60.29 58.90 57.93 57.63 57.75 57.92 58.00 58.24 58.08 57.29 57.08 57.36 55.59 55.59 55.53 55.61 56.04 56.87 57.70 57.88 58.58 59.40 59.21 58.66 58.94 59.07 59.50 59.83 59.42 58.67 58.81 58.49 58.63 57.96 56.42 55.49 54.32
56.17 57.49 59.25 62.11 61.71 62.19 60.39 59.05 58.27 57.86 57.70 57.95 58.11 58.32 58.45 58.00 57.02 57.34 57.67 56.60 56.07 55.70 55.62 56.27 56.72 57.96 58.27 58.63 59.10 59.31 58.97 59.15 58.84 59.17 58.26 58.24 58.87 58.28 57.83 57.73 57.86 56.03 54.84
57.03 57.71 59.14 61.80 61.63 61.13 60.62 59.59 58.73 58.37 58.45 58.61 58.39 58.04 58.67 58.87 58.43 57.63 57.67 58.12 56.83 56.38 55.94 56.14 56.06 57.04 58.60 58.77 58.46 58.59 58.89 58.35 57.91 57.89 57.45 57.75 58.47 57.64 57.77 57.31 55.78 54.88 54.93
57.73 57.99 59.04 60.79 61.46 60.94 60.89 60.03 59.38 59.01 59.61 58.93 58.52 58.25 58.88 59.06 59.05 59.06 59.04 58.65 58.08 57.34 57.00 56.42 56.24 57.72 58.26 58.37 58.84 58.84 58.27 58.35 58.24 57.67 57.30 57.29 57.02 56.66 57.26 55.49 55.08 54.18 53.24
56.13 58.13 58.94 59.85 61.31 61.52 61.06 60.82 59.67 59.72 59.68 60.10 58.68 58.12 58.24 58.99 59.16 59.95 60.17 60.20 59.20 58.76 57.95 57.58 58.16 58.09 58.63 59.25 59.22 58.95 57.99 57.54 57.63 57.59 57.45 56.99 55.83 54.88 54.51 54.33 54.29 53.04 50.50
54.11 56.10 58.07 59.08 60.30 61.16 61.38 61.54 60.43 59.73 59.91 59.76 59.75 59.05 59.21 59.60 59.30 59.53 59.72 60.41 60.43 59.86 59.45 59.13 58.79 58.90 59.05 59.16 58.51 58.38 57.65 57.10 56.22 56.01 54.99 48.14 44.82 43.96 48.04 51.99 50.35 47.71 45.89
53.92 55.05 56.15 58.40 59.66 60.54 61.45 61.74 61.10 60.15 60.32 59.57 59.53 60.38 60.80 60.55 59.58 59.36 59.62 59.76 59.71 59.76 59.72 58.99 58.85 58.35 59.05 50.26 47.20 52.53 56.14 55.59 53.58 46.56 40.57 39.22 38.60 37.85 37.96 37.67 36.71 39.52 40.97
54.33 54.63 54.84 56.31 58.12 60.34 61.10 61.31 61.65 61.54 60.41 59.86 59.86 60.17 60.31 60.24 60.28 60.62 60.21 59.51 58.67 58.93 58.59 58.61 58.63 58.21 57.80 42.40 42.57 42.07 49.97 46.23 42.23 39.67 37.71 36.33 36.28 36.05 35.19 34.83 33.89 33.35 33.22
54.56 55.38 55.81 56.25 56.76 57.00 60.63 61.42 62.55 61.87 60.49 60.09 60.05 60.30 59.80 59.83 59.87 59.75 59.44 59.34 59.29 58.50 57.96 57.90 57.40 48.99 42.21 38.91 38.42 38.01 38.79 36.72 36.54 36.65 35.24 33.74 33.26 33.77 33.15 31.97 30.91 31.05 31.36
55.79 55.61 56.50 56.74 56.87 56.40 56.82 60.71 61.01 61.48 61.09 60.19 59.93 60.14 59.73 59.19 58.89 58.54 58.31 58.25 57.93 57.73 52.00 46.76 44.00 39.58 37.14 37.05 37.08 36.79 34.94 33.80 33.73 33.83 33.62 33.22 32.31 33.28 34.06 31.27 30.03 28.78 28.69
55.37 55.23 56.28 56.39 56.30 56.93 56.27 56.45 59.66 59.89 59.90 60.66 60.45 60.42 60.21 59.33 58.13 57.62 56.66 50.24 45.29 40.71 38.70 36.49 36.33 35.68 35.14 35.66 36.64 35.24 33.22 31.14 30.61 30.19 30.48 31.26 30.93 31.88 31.67 29.98 29.54 28.07 28.07
54.32 54.86 54.59 53.24 53.65 55.59 56.65 56.03 56.44 57.33 59.40 59.81 58.23 55.13 54.94 53.80 49.56 45.17 43.02 41.26 38.03 35.54 33.83 32.54 32.69 32.89 33.41 34.00 34.62 34.19 31.87 30.64 29.22 28.61 28.00 29.28 30.74 30.06 29.28 28.23 26.70 26.61 28.34
51.25 50.67 49.72 48.17 48.68 51.47 53.41 50.03 48.22 49.09 48.93 47.01 45.27 44.92 44.85 43.53 42.06 39.19 38.03 36.74 35.02 33.05 31.31 30.04 29.31 30.33 30.99 31.95 32.24 31.97 31.33 30.64 28.65 27.62 27.69 28.18 29.42 28.03 27.10 26.12 27.37 28.34 28.63
45.73 45.46 44.01 42.92 42.94 44.12 45.58 45.48 43.78 43.68 42.45 40.99 39.98 39.85 39.60 38.81 39.12 37.87 36.73 33.92 32.39 30.37 28.95 27.88 27.01 27.36 29.09 29.73 31.08 30.76 30.45 30.20 28.57 28.44 28.56 28.92 28.41 27.26 26.09 26.90 27.68 27.55 26.05
38.59 39.24 38.47 36.34 36.06 39.43 39.33 38.87 39.05 39.15 37.50 36.62 35.03 34.38 33.83 34.02 34.57 34.20 33.56 32.24 30.65 29.29 28.26 27.22 26.29 26.87 27.65 28.00 28.67 28.48 28.81 29.74 28.97 28.54 28.83 28.41 27.49 27.36 25.89 26.35 27.41 26.08 24.26
35.51 35.09 34.82 34.69 34.54 35.53 36.02 36.67 36.21 35.60 33.28 32.46 31.68 30.74 30.34 30.04 29.70 29.89 29.84 29.39 30.00 29.89 28.10 27.85 28.08 26.67 25.87 28.16 30.19 29.92 29.15 28.81 28.51 27.77 28.44 28.13 27.62 26.27 25.65 25.39 24.96 24.40 23.74
32.77 32.85 32.81 32.81 33.20 34.14 34.10 34.22 34.25 33.99 32.25 30.44 29.81 29.28 28.77 28.20 27.90 27.18 27.01 30.09 29.55 29.90 29.41 28.76 26.95 27.51 28.56 29.05 29.39 29.39 29.45 29.96 30.56 28.15 25.42 24.02 23.83 22.76 22.54 21.81 21.18 21.31 20.10
MSLP
997.51 998.88 1000.47 1002.03 1003.25 1004.68 1006.35 1007.39 1008.20 1008.69 1009.11 1009.56 1010.02 1010.51 1010.87 1011.32 1011.66 1011.87 1012.03 1012.56 1012.42 1013.40 1014.42 1015.68 1016.13 1016.97 1017.41 1017.76 1018.54 1019.09 1019.53 1019.83 1019.90 1020.46 1021.13 1021.31 1021.38 1021.63 1021.77 1021.91 1022.18 1022.41 1022.76
996.72 998.34 1000.22 1002.02 1003.22 1004.57 1006.22 1007.29 1008.04 1008.53 1009.01 1009.48 1009.99 1010.39 1011.04 1011.74 1012.00 1012.46 1012.78 1012.78 1013.23 1014.17 1015.23 1016.25 1016.71 1017.28 1017.68 1018.17 1018.53 1018.88 1019.39 1019.77 1019.72 1020.37 1020.93 1021.61 1021.86 1021.58 1021.62 1021.74 1022.05 1022.26 1022.39
995.89 997.66 999.77 1001.69 1003.25 1004.46 1005.88 1006.96 1007.68 1008.18 1008.86 1009.49 1010.15 1010.65 1011.28 1012.13 1012.49 1013.18 1013.51 1014.14 1014.42 1015.19 1015.76 1016.22 1016.78 1017.41 1017.92 1018.40 1018.36 1018.77 1019.11 1019.59 1019.76 1019.93 1020.42 1020.95 1021.21 1021.39 1021.62 1021.76 1021.78 1021.95 1022.10
995.08 996.84 998.99 1001.14 1002.92 1004.07 1005.48 1006.62 1007.42 1007.87 1008.68 1009.42 1010.06 1010.40 1010.59 1011.34 1012.33 1012.85 1013.37 1013.79 1014.44 1015.01 1015.56 1016.24 1016.76 1017.08 1017.35 1017.77 1018.25 1018.50 1018.89 1019.33 1019.74 1020.11 1020.15 1020.44 1020.48 1021.17 1021.51 1021.54 1021.52 1021.53 1021.70
994.69 996.13 998.07 1000.27 1002.37 1003.71 1004.96 1006.15 1007.12 1007.58 1008.31 1009.17 1009.80 1010.43 1011.10 1011.59 1012.26 1012.90 1013.25 1013.61 1014.18 1014.74 1015.00 1015.34 1015.87 1016.55 1016.85 1017.49 1017.88 1018.12 1018.53 1018.69 1019.45 1019.89 1019.89 1020.15 1020.28 1020.62 1021.17 1021.34 1021.30 1021.32 1021.05
993.98 995.35 997.08 999.40 1001.45 1003.00 1004.31 1005.67 1006.68 1007.28 1007.98 1008.83 1009.54 1010.10 1010.69 1011.34 1012.21 1012.77 1013.20 1013.57 1014.04 1014.56 1014.87 1014.99 1015.36 1015.94 1016.56 1017.21 1017.35 1017.59 1017.96 1018.45 1018.67 1018.95 1019.11 1019.38 1019.80 1020.10 1020.42 1020.75 1020.69 1020.69 1020.51
993.26 994.64 996.56 998.50 1000.38 1002.07 1003.53 1005.07 1006.03 1006.88 1007.56 1008.34 1009.06 1009.66 1010.25 1010.81 1011.45 1012.07 1012.47 1013.05 1013.55 1014.02 1014.32 1014.69 1015.15 1015.87 1015.99 1015.98 1016.50 1016.93 1017.80 1018.00 1018.08 1018.34 1018.65 1018.67 1018.97 1019.13 1019.46 1019.82 1020.01 1020.30 1020.16
992.92 994.07 995.66 997.49 999.48 1001.22 1002.76 1004.33 1005.18 1006.18 1007.00 1007.74 1008.48 1009.18 1009.87 1010.46 1011.03 1011.47 1011.81 1012.31 1012.67 1013.20 1013.92 1014.35 1014.75 1015.20 1015.28 1015.36 1015.90 1016.53 1016.93 1017.45 1017.58 1017.81 1017.99 1018.24 1018.39 1018.59 1018.79 1019.06 1019.67 1020.06 1020.04
992.77 993.64 994.94 996.57 998.47 1000.35 1001.85 1003.47 1004.54 1005.49 1006.47 1007.19 1007.90 1008.52 1009.21 1009.97 1010.42 1011.05 1011.47 1012.06 1012.60 1013.21 1013.70 1014.08 1014.61 1014.82 1014.88 1015.24 1015.61 1015.96 1016.38 1016.71 1016.88 1017.16 1017.49 1017.61 1017.75 1018.02 1018.04 1018.31 1018.64 1019.21 1019.59
992.10 992.88 994.10 995.85 997.49 999.48 1001.16 1002.79 1004.08 1004.67 1005.65 1006.51 1007.20 1007.80 1008.42 1009.17 1009.77 1010.33 1010.91 1011.54 1012.11 1012.70 1013.14 1013.56 1013.77 1014.03 1014.53 1014.76 1015.13 1015.51 1015.73 1016.04 1016.24 1016.46 1016.68 1016.78 1017.00 1017.31 1017.47 1017.65 1017.96 1018.25 1018.49
991.83 992.27 993.47 995.20 996.80 998.65 1000.35 1001.88 1003.18 1003.98 1004.69 1005.73 1006.41 1007.03 1007.67 1008.39 1009.09 1009.47 1010.11 1010.72 1011.32 1011.81 1012.32 1012.66 1013.02 1013.44 1013.93 1014.11 1014.46 1014.78 1015.02 1015.23 1015.44 1015.62 1015.95 1016.15 1016.28 1016.56 1016.69 1016.74 1016.89 1017.41 1017.64
991.98 991.89 992.88 994.57 996.06 997.78 999.44 1000.84 1001.92 1002.90 1003.64 1004.47 1005.60 1006.38 1007.11 1007.66 1008.23 1008.69 1009.20 1009.91 1010.48 1010.92 1011.48 1011.94 1012.33 1012.67 1012.95 1013.40 1013.81 1014.14 1014.31 1014.54 1014.88 1014.89 1015.23 1015.34 1015.55 1015.86 1015.86 1015.99 1016.39 1016.67 1016.86
992.29 992.00 992.72 993.89 995.38 997.02 998.40 999.73 1000.78 1001.54 1002.74 1003.70 1004.34 1005.21 1005.80 1006.42 1006.98 1007.57 1008.33 1008.99 1009.54 1010.00 1010.58 1011.09 1011.32 1011.51 1011.93 1012.51 1012.88 1013.24 1013.56 1013.80 1013.98 1014.17 1014.44 1014.53 1014.86 1015.14 1015.17 1015.46 1015.84 1016.15 1016.52
992.59 992.63 992.89 993.60 994.77 996.07 997.49 998.69 999.85 1000.89 1001.55 1002.64 1003.64 1004.21 1004.86 1005.39 1005.93 1006.51 1007.19 1007.82 1008.52 1008.96 1009.56 1009.94 1010.27 1010.79 1011.18 1011.65 1012.00 1012.31 1012.71 1013.01 1013.17 1013.40 1013.62 1013.89 1014.22 1014.58 1014.84 1015.09 1015.23 1015.63 1015.99
992.58 992.68 993.19 993.65 994.30 995.33 996.57 997.74 998.96 999.95 1000.80 1001.39 1002.12 1002.81 1003.77 1004.54 1005.28 1005.86 1006.38 1006.90 1007.43 1008.02 1008.57 1009.06 1009.47 1009.93 1010.45 1010.82 1011.28 1011.51 1011.85 1012.17 1012.48 1012.69 1013.14 1013.92 1014.22 1014.37 1014.55 1014.69 1014.99 1015.38 1016.08
992.58 992.72 993.05 993.56 994.03 994.64 995.63 996.74 997.87 999.05 999.98 1000.51 1000.87 1001.73 1002.61 1003.54 1004.25 1004.80 1005.38 1006.00 1006.49 1007.06 1007.64 1008.05 1008.58 1009.14 1009.56 1009.96 1010.32 1010.72 1011.22 1011.60 1012.18 1013.23 1014.32 1014.74 1015.01 1015.24 1015.36 1015.56 1015.97 1016.47 1016.74
993.02 993.50 993.92 994.07 994.08 994.37 994.93 995.70 996.67 997.83 998.78 999.63 1000.33 1000.90 1001.56 1002.11 1002.78 1003.78 1004.42 1004.90 1005.47 1006.15 1006.87 1007.45 1007.96 1008.49 1009.06 1009.81 1009.94 1010.32 1011.08 1012.04 1012.99 1013.81 1014.70 1015.42 1015.81 1016.00 1016.37 1016.76 1017.43 1017.72 1018.12
993.90 994.36 994.90 995.24 995.17 994.86 994.64 994.97 995.73 996.72 997.70 998.47 999.22 1000.07 1000.81 1001.52 1002.24 1002.81 1003.50 1004.23 1004.88 1005.47 1006.28 1006.98 1007.46 1008.78 1010.05 1010.15 1010.50 1011.09 1012.13 1013.25 1013.97 1014.47 1015.25 1015.62 1016.25 1016.68 1017.15 1017.71 1018.24 1018.77 1019.32
995.29 995.72 996.13 996.40 996.49 995.79 995.15 994.91 995.28 996.01 996.93 997.68 998.40 999.15 1000.05 1000.97 1001.91 1002.51 1003.15 1004.04 1004.85 1005.64 1006.41 1007.47 1008.40 1009.45 1010.80 1011.11 1011.21 1011.81 1013.05 1014.27 1014.77 1015.42 1015.78 1016.22 1016.98 1017.67 1017.91 1018.17 1018.70 1019.57 1019.62
996.89 997.23 997.27 997.23 997.03 996.62 995.99 995.50 995.55 995.77 996.04 996.91 997.84 998.66 999.55 1000.46 1001.38 1002.30 1003.23 1004.41 1005.20 1006.60 1007.84 1009.13 1010.22 1010.92 1011.46 1011.95 1011.78 1012.54 1013.62 1014.49 1015.56 1016.54 1017.07 1017.44 1017.82 1018.33 1018.53 1018.76 1019.10 1019.80 1019.99
998.26 998.76 998.93 998.95 999.03 998.33 997.48 996.91 996.92 996.46 995.40 996.73 998.09 999.08 999.68 1000.67 1002.09 1003.38 1004.62 1005.65 1006.86 1008.15 1009.32 1010.26 1011.62 1012.22 1012.60 1013.09 1013.46 1013.59 1014.30 1015.08 1016.01 1017.16 1017.89 1018.43 1018.74 1018.95 1019.39 1019.56 1019.94 1020.29 1020.38
999.75 1000.40 1000.66 1001.04 1000.97 1000.24 999.26 999.27 999.56 999.69 999.44 997.62 1000.17 1001.00 1001.74 1002.29 1002.80 1004.12 1006.01 1007.12 1008.30 1009.45 1010.51 1011.43 1012.65 1013.67 1014.09 1014.32 1014.62 1015.01 1015.29 1016.09 1016.81 1018.06 1018.96 1019.51 1019.84 1020.14 1020.02 1020.18 1020.51 1020.64 1020.93
1002.24 1002.44 1002.86 1003.08 1003.02 1002.70 1001.98 1001.64 1002.00 1001.64 1001.81 1000.80 1001.18 1002.60 1003.52 1004.06 1005.49 1004.98 1006.55 1007.56 1009.02 1010.10 1011.46 1012.20 1013.17 1014.19 1015.48 1015.95 1016.25 1016.42 1016.89 1016.99 1017.29 1018.54 1019.48 1020.23 1020.83 1020.99 1021.11 1021.09 1020.96 1021.36 1021.61
1004.13 1004.40 1004.65 1005.02 1005.02 1004.79 1004.55 1004.28 1004.12 1003.82 1003.43 1003.73 1004.52 1004.35 1004.05 1006.16 1007.03 1006.57 1007.91 1008.87 1009.13 1010.86 1011.56 1012.41 1013.88 1014.91 1015.37 1016.33 1017.21 1017.35 1018.16 1018.55 1019.02 1019.21 1019.88 1020.38 1020.82 1021.31 1021.34 1021.32 1021.77 1022.21 1022.42
1006.29 1006.34 1006.34 1006.61 1006.55 1006.31 1006.12 1005.94 1005.76 1006.07 1005.38 1005.93 1006.25 1006.20 1006.71 1007.80 1008.55 1008.96 1009.58 1010.45 1011.08 1011.57 1012.62 1012.92 1013.94 1014.43 1016.01 1016.61 1016.97 1017.10 1018.05 1019.07 1019.43 1019.70 1019.92 1020.71 1021.13 1021.34 1021.80 1022.28 1022.51 1022.84 1023.11
1008.49 1007.92 1008.07 1008.18 1007.90 1007.33 1006.70 1006.50 1006.84 1007.36 1007.48 1007.43 1008.26 1008.79 1008.91 1009.35 1010.19 1010.95 1011.68 1013.04 1013.52 1014.17 1015.22 1014.21 1014.62 1016.09 1016.01 1017.13 1017.78 1018.43 1018.78 1019.21 1019.60 1019.98 1020.78 1021.42 1021.92 1022.27 1022.57 1022.96 1023.34 1023.65 1023.90
Wind_Speed
14 15 12 11 10 15 13 11 10 8 8 8 7 7 6 7 7 6 12 12 11 12 11 8 8 4 5 6 6 4 5 3 5 4 4 1 3 6 5 5 5 5 6
13 16 16 12 10 15 13 12 10 10 9 7 6 6 9 7 9 8 9 10 9 8 9 8 7 6 4 5 5 5 3 3 3 4 4 3 1 3 4 4 5 7 5
16 18 18 14 10 15 14 13 11 12 10 10 8 8 8 7 8 9 11 11 11 7 8 8 7 6 6 6 5 5 6 4 2 4 4 4 4 4 3 5 5 7 5
13 19 19 17 13 12 16 14 13 13 13 14 12 16 12 13 8 9 10 11 13 13 13 15 14 14 9 7 8 7 6 5 6 2 2 3 2 3 2 4 6 5 7
9 19 19 18 16 12 14 14 14 13 15 15 14 12 11 8 8 6 7 10 10 13 9 12 12 9 8 8 7 6 6 4 4 5 3 3 3 4 3 3 4 6 5
12 18 19 19 17 15 15 14 14 13 15 15 16 16 15 13 10 10 9 8 10 9 7 7 6 8 10 12 10 9 6 9 7 4 3 4 4 4 4 4 5 6 5
13 14 21 18 17 18 17 14 17 15 16 16 16 17 17 16 15 15 12 14 11 7 7 6 6 8 12 13 9 7 9 8 4 6 4 3 4 3 3 4 4 4 3
12 15 20 19 18 18 19 18 18 17 17 16 17 17 17 11 12 15 11 10 10 10 9 8 8 12 13 8 7 5 5 6 6 7 6 5 4 4 4 4 4 3 4
8 11 18 19 18 18 19 19 18 17 17 17 15 17 16 17 15 17 13 11 10 9 11 11 12 10 8 7 7 6 8 7 7 8 9 7 6 4 5 5 5 6 7
13 14 15 19 18 18 16 18 18 17 18 18 16 15 16 17 16 14 17 14 13 12 13 12 12 11 12 10 10 7 7 9 8 7 9 9 7 7 6 7 5 6 9
8 14 14 19 18 17 18 18 18 18 18 17 17 15 16 18 18 15 15 17 15 15 14 14 12 15 15 11 10 11 11 11 11 10 10 10 9 8 6 6 8 7 6
9 7 14 20 19 18 18 18 18 19 18 18 17 17 16 17 18 18 18 18 18 16 16 16 17 15 14 13 14 14 12 13 11 10 9 10 7 11 9 7 7 7 7
4 4 13 16 17 17 17 18 18 18 17 18 18 17 18 18 18 18 18 19 19 19 18 19 20 16 14 13 12 13 12 12 12 10 10 11 10 11 9 6 7 6 7
6 2 2 11 16 16 17 17 17 15 17 19 18 18 18 17 16 16 17 18 19 19 19 20 18 18 14 15 15 14 12 11 10 11 11 10 9 8 7 7 10 8 7
6 7 5 7 11 15 17 15 15 16 15 17 20 20 18 18 17 16 15 15 15 17 18 17 17 16 15 11 12 11 12 12 10 9 3 5 8 9 5 3 5 4 4
5 4 5 5 10 11 15 16 16 17 16 16 16 16 18 18 18 18 18 17 15 15 14 15 14 15 11 14 17 13 7 7 3 6 6 7 10 14 16 18 19 10 2
2 7 9 6 3 7 9 13 15 16 17 16 14 15 15 17 17 17 17 18 18 15 15 14 14 14 11 5 5 6 4 6 6 8 7 7 6 9 10 16 18 19 19
9 9 9 11 12 10 6 10 13 15 17 17 16 14 14 16 16 16 16 15 14 16 14 14 11 8 6 11 15 15 11 10 9 9 8 9 9 8 9 10 11 10 9
9 9 7 6 7 10 11 6 11 13 15 17 16 15 14 14 13 13 14 10 10 10 4 8 9 11 9 12 15 15 11 11 10 9 10 11 11 13 13 10 10 7 6
10 9 9 9 10 10 10 8 8 10 13 13 14 13 12 13 13 12 11 6 12 11 10 12 11 12 10 12 15 13 9 12 10 10 12 17 11 11 9 6 7 8 5
11 12 11 11 12 12 12 9 11 2 6 6 6 7 8 10 14 13 11 11 13 13 13 15 12 12 11 11 15 15 9 9 10 9 8 8 18 19 19 15 8 6 5
15 16 13 12 14 15 12 13 13 12 11 19 14 13 12 10 12 17 12 13 13 14 13 14 12 10 11 16 20 21 19 16 11 10 8 10 18 17 17 11 13 10 6
14 14 13 13 14 15 14 11 9 9 11 15 14 14 13 13 9 14 13 13 12 11 10 11 11 10 9 10 22 23 21 19 13 10 15 16 15 14 11 13 11 9 6
14 12 13 14 14 14 14 13 11 9 11 13 13 12 17 13 11 10 10 7 11 9 10 13 11 10 9 8 7 9 11 18 12 13 7 7 7 6 5 5 7 6 4
12 12 12 11 11 11 13 14 13 10 14 13 12 13 13 14 13 13 11 10 10 9 9 11 10 13 9 11 14 12 8 6 8 7 5 5 5 6 6 6 6 6 6
11 12 12 10 10 8 10 13 13 13 11 15 12 11 11 12 13 15 18 30 26 28 22 25 17 13 24 25 22 19 16 13 10 8 8 7 6 6 6 6 6 7 7
Wind_Direction
183 165 158 142 155 121 136 136 160 148 139 135 129 120 118 110 101 95 123 135 103 97 95 109 109 108 116 124 145 160 154 168 187 111 134 191 170 172 176 189 181 187 183
182 155 145 154 171 139 146 148 163 160 148 140 139 126 126 118 115 113 98 99 86 93 109 128 140 127 118 141 174 164 139 171 182 149 134 155 275 267 217 186 186 193 184
177 156 153 164 176 145 153 156 172 165 144 137 126 121 113 112 126 139 136 147 148 146 141 151 161 150 165 195 170 165 167 154 196 211 165 169 202 150 204 224 199 201 201
178 160 157 163 172 160 150 160 170 160 151 150 150 153 152 147 147 147 163 167 165 164 176 170 184 179 192 170 181 183 185 153 172 257 226 270 133 151 189 202 220 217 205
222 161 164 160 167 175 157 161 170 165 153 162 163 158 153 141 149 160 164 159 164 169 173 182 168 158 163 173 179 187 184 180 152 191 170 205 210 205 179 246 202 220 216
196 163 158 155 166 171 161 158 170 170 157 165 168 171 166 154 158 170 175 171 168 183 185 172 159 170 182 190 190 193 178 214 189 203 199 182 166 198 189 204 228 200 216
170 162 154 160 169 162 161 169 171 175 170 170 169 177 178 169 171 176 179 179 179 181 185 174 181 198 204 199 175 172 199 209 200 192 212 219 221 211 200 194 225 234 235
162 168 161 164 169 165 165 180 177 176 173 172 178 180 182 179 181 183 181 186 191 187 189 189 191 216 208 189 177 173 178 189 197 212 209 218 218 214 216 214 196 263 235
166 175 163 165 167 168 170 175 180 174 177 180 183 182 182 186 192 189 188 185 187 191 189 195 206 209 197 193 188 188 193 199 204 209 218 217 223 224 216 218 198 208 242
196 177 170 163 165 167 167 168 186 181 179 181 186 188 182 185 193 187 197 189 196 202 197 200 200 208 216 200 195 204 206 208 215 210 217 230 226 228 232 234 222 227 236
282 166 169 161 164 162 166 170 180 187 180 185 188 188 189 185 194 192 191 198 199 199 205 204 212 210 210 213 213 210 209 215 221 224 224 227 232 240 234 232 229 228 210
293 187 164 159 164 165 168 176 182 189 187 182 187 192 195 194 197 201 196 197 201 202 207 211 222 224 202 207 218 220 218 223 229 226 227 228 229 238 230 226 220 215 217
352 289 161 162 165 166 176 181 185 189 187 184 186 191 194 198 197 197 199 199 206 202 207 211 220 223 218 214 218 221 222 224 225 226 227 232 230 235 233 218 220 228 234
129 268 200 174 170 171 181 184 184 193 186 179 190 191 200 202 202 199 200 200 202 205 203 215 215 219 217 219 217 217 222 224 228 231 233 233 231 226 217 222 231 233 221
303 154 204 202 180 177 180 186 182 188 189 202 187 195 195 198 199 206 207 205 201 204 210 207 213 213 218 217 222 223 223 224 226 226 242 37 43 38 17 263 216 201 221
254 243 148 225 199 190 183 184 184 186 195 202 203 191 188 195 200 202 202 204 205 205 207 210 211 216 220 215 212 213 212 222 218 123 82 71 63 64 67 71 61 42 142
332 43 8 335 247 197 184 185 186 179 191 201 203 199 196 197 196 200 200 201 202 197 205 210 213 215 213 107 146 158 88 97 94 106 106 88 75 81 84 73 68 63 60
38 25 19 1 351 337 205 186 184 186 190 196 199 199 200 200 202 199 204 204 200 199 202 208 208 111 74 100 96 89 88 84 83 90 103 103 88 76 94 92 81 71 60
45 36 6 356 323 315 315 220 193 193 188 199 198 198 199 199 200 207 201 196 200 196 132 82 88 98 90 93 99 102 93 92 83 86 83 88 86 90 97 94 95 80 92
34 1 12 357 356 344 318 320 216 202 192 193 196 196 194 193 195 198 192 64 80 86 82 76 72 85 92 90 96 104 116 103 96 79 80 81 88 83 82 89 96 92 71
37 18 19 17 0 345 326 317 334 28 164 109 93 69 67 84 87 85 82 92 94 90 83 82 70 66 65 75 89 93 101 110 106 100 91 78 81 81 76 71 68 65 62
32 24 27 20 7 354 11 33 31 19 2 93 70 64 71 84 105 102 92 87 92 91 91 89 77 67 66 74 84 90 94 97 93 90 88 86 88 82 81 74 71 58 58
35 32 30 25 20 11 11 31 21 47 45 49 81 92 79 77 70 95 105 103 103 108 102 95 93 88 74 75 80 83 79 86 96 97 97 96 97 87 69 71 60 59 51
30 31 38 34 25 23 27 34 28 39 64 76 66 63 81 74 66 84 88 92 111 112 113 111 106 104 104 100 94 88 85 88 93 107 106 102 89 84 107 79 56 65 56
35 38 42 42 44 46 45 36 40 41 66 64 67 70 73 73 72 62 64 65 60 91 115 106 117 106 93 82 84 89 87 89 104 118 106 87 77 66 61 65 59 54 47
32 44 42 33 16 38 62 73 63 48 70 72 56 55 74 83 82 83 79 70 75 76 86 94 90 96 94 91 87 82 83 76 97 85 82 75 66 61 59 54 48 50 47